Theta_e
346 346 337 340 344 348 349 348 341 339 338 338 338 339 340 339 340 342 342 341 342 341 341 339 337 334 331 330 326 322 323 328 333 335 335 340 341 340 339 338 343 345 336
347 346 334 339 342 346 349 347 342 341 341 340 339 341 340 340 341 342 341 339 338 337 336 334 331 327 323 321 319 316 317 320 324 327 328 328 335 338 338 340 345 340 334
348 347 342 335 340 344 348 346 345 344 344 342 341 342 341 341 339 339 338 337 334 332 331 329 324 320 317 314 313 313 314 316 319 334 341 343 336 333 337 337 339 337 336
349 349 347 334 338 341 347 347 347 346 347 344 344 343 342 341 337 336 337 336 331 330 327 323 318 314 312 311 310 310 312 316 321 334 338 336 335 324 333 337 338 337 336
349 349 348 337 334 340 346 348 348 348 349 346 345 344 341 340 336 336 336 331 328 326 322 317 314 312 312 311 310 309 310 315 329 334 336 336 337 329 327 328 338 337 339
346 349 350 339 330 338 343 349 348 348 349 348 346 344 339 337 337 336 332 327 325 320 316 315 314 313 314 314 312 311 312 322 337 339 339 334 340 331 327 333 337 339 337
344 347 350 337 335 335 340 347 349 349 349 348 346 343 337 335 336 332 327 324 321 316 316 316 316 316 317 317 315 314 321 331 341 339 340 340 340 332 330 331 331 330 330
343 345 354 337 339 334 337 345 349 350 350 349 347 343 339 336 334 328 325 321 317 316 316 317 317 318 318 320 320 317 319 328 337 339 339 340 342 333 332 331 333 332 330
343 344 354 345 344 337 335 340 349 350 350 348 347 344 341 336 330 327 324 320 317 317 318 318 319 319 319 320 322 324 323 323 335 338 337 339 341 336 335 333 331 331 330
342 342 349 345 347 347 345 339 342 347 348 347 345 343 340 334 329 327 324 320 317 318 320 320 319 319 319 321 322 323 324 324 328 335 336 337 337 335 335 336 334 331 331
343 340 346 343 346 344 342 346 338 339 342 343 343 340 336 339 337 336 329 331 318 319 321 322 321 318 319 320 321 321 323 331 332 335 334 335 335 327 331 335 336 334 332
343 341 343 345 345 344 340 344 344 344 344 345 344 344 342 339 339 336 335 329 330 320 322 322 322 321 320 328 331 327 329 330 331 333 333 334 335 331 327 329 335 336 333
344 341 340 345 346 343 339 342 343 341 342 344 344 344 343 339 339 340 338 337 336 331 332 330 333 332 330 331 329 335 336 333 333 333 333 333 333 331 330 327 333 334 335
340 342 339 345 346 345 340 340 343 339 342 342 343 344 345 342 342 344 340 341 341 337 337 333 335 335 335 334 334 333 332 332 332 332 333 333 332 330 331 334 334 334 335
335 340 341 342 348 348 347 341 342 339 341 341 341 344 345 344 343 346 343 340 339 340 338 339 336 335 336 336 335 334 333 333 332 332 331 332 332 330 330 334 334 334 336
335 337 339 341 345 348 349 348 344 343 340 342 342 343 347 345 345 344 343 342 340 339 338 337 338 337 336 336 335 336 335 334 333 332 333 334 332 330 328 329 335 336 337
332 334 341 342 341 348 350 349 348 344 344 343 343 343 346 347 344 344 342 342 340 339 339 338 339 337 336 335 335 335 335 336 336 335 334 334 334 332 329 326 327 336 337
327 331 334 341 342 343 348 350 349 346 345 343 344 343 344 348 344 344 342 341 340 338 339 341 341 337 336 337 337 337 338 338 338 338 338 337 336 334 333 330 325 331 336
326 329 341 345 344 347 346 347 347 345 343 343 341 342 344 345 346 344 344 341 340 337 339 340 339 338 339 339 339 340 341 342 341 340 340 339 340 339 337 335 332 332 336
324 327 332 341 340 339 346 347 346 344 342 339 338 338 337 341 343 344 343 341 338 338 339 340 339 340 341 341 342 342 343 343 342 342 342 342 342 343 343 341 338 339 339
324 326 328 331 347 335 339 345 346 344 341 340 339 337 337 339 341 341 343 340 338 336 341 340 341 342 344 344 345 344 344 345 345 345 344 344 344 344 342 340 337 340 342
323 326 328 329 330 344 343 340 343 343 339 338 337 336 337 337 340 340 338 337 337 340 343 344 343 344 347 346 346 343 342 342 347 346 346 345 344 343 341 341 343 343 342
322 324 324 327 330 331 339 348 349 348 348 348 342 339 338 338 339 335 337 328 336 340 345 346 346 348 346 346 347 345 341 338 341 348 348 345 344 343 344 344 343 341 342
320 320 321 324 327 329 329 331 338 345 346 347 350 348 344 343 343 342 339 332 334 344 347 348 350 350 350 347 346 348 347 346 345 343 345 344 344 344 346 343 342 341 341
319 320 321 322 325 327 330 332 331 337 344 341 336 338 348 349 349 346 343 343 346 347 349 350 352 353 350 348 343 347 346 346 347 349 348 344 343 341 341 344 341 340 340
317 318 318 320 322 324 328 330 333 333 336 339 342 343 337 340 341 334 349 349 351 352 352 353 352 353 351 350 348 342 343 343 344 346 346 348 346 341 339 338 339 339 337
Wind_Speed
17 26 28 25 23 22 23 22 23 23 22 22 22 20 21 21 19 18 17 16 14 12 11 10 8 7 7 6 6 7 7 8 8 8 8 8 8 8 8 8 4 5 5
21 25 30 26 24 24 24 24 24 23 22 22 21 20 20 19 17 16 16 15 13 11 10 9 8 7 6 6 6 7 7 7 8 8 8 8 6 6 5 5 8 7 5
20 25 30 28 25 25 26 26 25 25 23 22 21 20 19 17 16 16 15 13 12 11 10 9 8 7 6 6 6 7 7 7 9 10 9 7 6 5 4 4 4 4 5
18 23 25 29 27 26 27 27 27 26 24 23 21 20 19 17 17 16 15 13 12 11 10 9 8 8 7 6 6 6 7 7 10 9 3 4 7 4 4 3 4 4 4
15 22 24 32 28 27 28 29 28 27 25 24 22 21 20 19 18 16 15 13 12 12 10 9 8 8 8 7 6 7 7 8 8 4 1 3 4 5 4 4 1 3 5
15 20 25 34 30 29 28 30 29 28 27 25 23 22 21 19 18 16 15 14 12 11 11 10 9 8 8 7 7 7 8 8 5 4 2 4 3 4 4 4 3 4 4
18 20 24 35 32 30 28 28 30 28 27 25 24 23 22 21 19 17 16 14 12 11 11 10 9 9 8 7 7 7 7 7 7 3 2 2 4 5 4 4 3 3 3
20 23 22 36 35 31 30 29 29 28 28 25 24 23 22 21 19 17 16 15 13 12 11 11 10 9 8 8 7 8 8 7 5 4 5 4 5 6 7 6 5 3 2
20 25 22 30 34 34 31 29 28 27 27 26 25 24 22 21 19 18 16 14 13 12 12 11 10 10 8 9 9 9 9 9 10 9 8 8 10 8 9 10 9 7 5
21 26 24 27 27 27 27 30 29 27 26 25 25 24 23 21 19 18 17 15 13 12 12 12 11 10 9 9 10 10 11 11 12 11 10 9 8 10 10 12 12 10 8
20 25 24 26 26 27 25 23 30 28 26 25 24 24 22 15 15 14 15 14 14 13 12 12 12 11 11 12 14 14 14 12 14 14 11 13 14 13 14 12 13 13 11
17 25 25 26 25 26 26 23 23 21 20 19 18 18 18 16 15 15 14 17 15 15 13 13 13 13 14 12 14 14 15 15 17 14 14 12 13 13 14 15 14 15 14
14 22 25 25 23 25 26 25 22 22 21 20 21 21 20 18 16 15 14 15 15 15 13 14 13 13 15 15 14 14 14 14 16 16 16 14 14 14 14 15 15 15 16
11 18 22 24 23 25 26 26 23 25 23 22 23 23 19 20 18 15 16 14 12 14 12 14 14 16 16 16 17 17 17 18 17 16 15 17 16 17 17 16 16 16 17
10 21 19 19 21 22 22 24 24 26 24 24 23 24 23 20 18 16 15 15 13 12 14 13 15 15 14 16 18 19 19 18 18 18 18 16 15 16 19 19 18 17 17
6 7 18 23 20 22 22 16 24 23 25 25 24 24 26 23 20 18 16 16 16 15 15 15 15 15 17 17 18 18 19 18 18 19 19 17 20 20 20 23 22 20 17
7 7 10 17 23 20 21 24 17 22 21 25 24 23 24 27 23 21 18 18 18 16 16 15 15 14 17 17 17 18 19 19 19 20 20 18 18 20 19 22 25 23 20
3 5 12 14 19 24 24 22 19 20 23 24 26 25 27 26 27 22 21 20 18 17 16 18 17 14 17 17 17 17 17 18 17 19 19 18 17 18 20 22 23 25 21
3 1 9 12 15 17 23 22 23 22 23 25 20 22 24 29 26 29 23 21 21 20 19 18 17 15 15 16 17 17 17 17 16 17 18 18 18 18 18 18 21 22 22
3 3 3 10 19 15 15 19 21 25 27 27 24 27 27 27 30 31 26 23 22 22 19 18 19 16 16 16 16 17 16 17 16 16 19 17 17 17 17 18 14 18 21
2 4 2 2 8 21 18 16 23 19 25 23 26 25 27 24 31 28 22 18 20 19 22 20 20 19 16 14 15 18 18 21 21 18 18 17 19 17 14 16 18 19 20
3 2 1 3 2 8 19 27 21 24 27 26 27 30 33 32 31 27 27 20 21 21 25 24 23 20 15 17 14 15 9 10 20 22 15 16 19 14 14 16 12 15 17
4 3 2 1 3 6 13 20 29 23 13 8 23 24 32 33 35 33 34 28 26 24 27 28 24 24 18 18 21 12 5 7 6 12 14 13 15 13 11 14 16 17 17
7 3 2 3 6 8 8 14 15 13 9 14 18 26 33 34 32 27 36 33 33 27 31 24 21 23 21 19 18 18 21 18 6 9 10 10 12 12 13 14 17 18 18
7 6 3 3 4 11 8 9 11 16 18 29 43 36 36 33 16 26 33 31 23 29 29 25 21 23 22 23 19 16 16 14 15 9 10 8 12 13 13 13 12 11 15
6 7 4 4 6 8 9 11 13 16 18 20 29 48 23 24 22 21 41 28 29 30 24 22 24 22 25 21 20 19 19 14 10 12 9 10 7 11 11 13 9 13 12
Wind_Direction
138 155 160 162 166 171 172 171 170 168 165 164 161 157 152 147 146 147 145 141 139 140 141 141 137 130 124 122 116 110 108 107 106 104 100 102 101 94 91 110 91 119 98
143 159 160 163 168 174 175 175 173 173 170 169 166 161 157 151 150 152 149 147 148 145 142 141 139 139 138 132 132 125 124 119 118 111 109 106 104 97 94 90 77 81 99
143 160 163 162 171 177 180 179 178 176 175 174 171 165 161 158 156 159 155 153 152 151 151 152 151 145 146 146 144 139 131 132 121 119 134 156 93 100 91 98 88 85 95
146 162 167 166 173 180 184 183 182 180 180 178 175 170 169 165 164 165 159 159 157 157 155 156 159 148 149 149 145 142 143 139 136 138 181 111 112 113 114 109 99 114 111
158 168 175 174 173 182 186 186 185 185 185 183 180 177 175 172 171 169 166 166 166 162 162 162 160 151 148 149 150 151 154 149 143 182 150 112 111 116 107 134 82 95 144
177 179 187 181 175 182 190 189 190 190 190 187 185 183 179 179 177 174 174 174 174 168 168 167 166 159 153 160 163 163 160 153 173 226 143 115 79 121 143 149 172 190 186
185 184 192 186 181 182 189 194 193 194 195 193 191 188 185 183 182 183 180 180 179 176 174 176 175 171 169 175 178 183 177 179 255 247 204 203 153 192 187 162 175 200 181
189 185 184 189 186 184 187 197 199 198 198 199 197 195 193 188 188 188 189 186 185 188 184 186 186 187 188 191 198 207 204 203 265 258 254 233 219 216 211 206 200 220 213
189 183 181 188 188 187 189 196 202 203 202 201 202 201 199 196 194 194 198 196 194 200 199 198 202 201 204 210 216 227 228 221 249 259 255 243 234 234 225 220 218 226 236
186 184 179 185 188 186 189 198 202 207 207 206 203 204 203 202 202 201 204 207 207 211 213 215 217 218 222 229 232 239 247 244 247 267 249 241 241 248 234 219 226 229 233
189 186 180 185 188 188 186 197 203 208 211 212 211 209 208 202 210 214 212 227 225 222 224 229 236 236 237 240 244 247 249 254 253 248 258 232 241 255 234 228 226 230 231
203 186 184 182 188 188 186 192 196 202 207 211 211 211 203 206 209 209 220 226 231 234 233 236 242 247 248 246 254 251 246 252 261 262 263 248 253 258 239 232 230 231 233
220 197 192 179 189 191 192 185 193 199 202 209 209 210 206 207 210 212 217 225 229 236 228 242 240 242 244 246 252 228 243 239 254 262 264 248 254 263 239 229 234 237 235
232 217 199 172 191 200 197 190 191 196 199 203 208 208 209 209 214 215 219 223 213 225 227 233 238 233 240 248 252 255 259 259 265 264 261 257 255 261 242 234 236 237 234
317 198 213 201 200 210 223 194 196 196 200 205 206 207 209 212 217 216 224 227 225 225 223 228 236 244 243 247 253 255 257 260 262 262 266 266 252 257 251 242 237 239 237
252 240 221 205 205 205 225 228 200 195 203 207 210 207 208 210 214 219 221 226 233 233 234 232 231 237 243 248 251 255 256 258 258 258 259 259 259 254 256 248 242 242 240
207 232 215 221 204 205 214 231 218 206 207 206 213 211 207 210 213 213 223 222 229 232 239 244 234 238 246 251 252 255 255 252 255 257 255 257 261 254 253 255 248 243 239
235 207 226 187 206 207 211 216 226 217 215 218 213 215 210 214 211 216 223 225 224 226 233 233 233 224 244 248 252 255 256 254 255 252 252 254 257 258 255 246 248 242 242
258 277 202 172 189 194 206 217 222 227 227 231 227 222 220 210 215 213 220 224 219 226 227 232 228 221 242 248 253 255 255 260 260 258 253 250 254 257 259 259 244 241 239
182 57 267 244 212 197 209 220 226 224 231 229 231 223 225 222 220 216 215 219 213 222 229 231 229 225 230 249 255 259 256 259 258 256 255 251 253 253 253 258 245 231 239
172 117 87 277 256 216 211 223 227 229 224 226 235 236 227 222 217 219 217 218 228 227 232 227 228 230 233 240 258 259 259 245 238 246 252 248 250 244 246 245 241 241 240
216 142 152 101 283 224 215 232 240 230 218 220 233 239 237 224 226 213 220 218 225 231 230 222 217 232 228 231 236 251 272 280 222 217 235 247 250 253 241 239 237 244 255
190 173 278 317 206 207 225 217 223 232 237 237 236 244 243 232 225 221 222 226 220 228 236 224 217 224 229 225 227 241 282 268 278 192 215 236 245 234 250 252 242 245 243
240 251 182 255 294 271 251 235 237 219 240 237 252 251 246 234 230 222 220 231 233 223 231 230 219 223 224 240 216 233 254 280 276 273 203 228 228 238 240 243 248 239 243
235 215 242 248 264 274 265 248 257 247 229 241 238 258 234 222 241 236 244 225 218 224 234 229 221 217 223 232 240 221 235 244 248 263 276 222 210 227 231 217 238 225 230
229 235 220 223 254 276 273 249 240 255 241 234 225 227 227 221 205 240 241 216 217 223 225 226 224 220 219 229 236 247 240 240 233 246 262 268 245 216 222 216 219 245 247